Wind_Speed
20 23 16 12 13 18 16 13 9 12 12 14 15 18 15 17 17 22 25 30 29 22 23 24 24 23 23 20 19 21 21 18 18 17 13 10 7 6 4 4 8 6 10
22 21 17 14 16 20 14 11 12 11 13 15 18 18 14 17 16 18 26 28 28 22 17 22 22 24 25 19 18 22 22 18 19 18 15 10 7 8 8 8 9 6 8
20 16 9 16 22 17 17 11 11 11 11 11 13 15 13 14 16 17 23 28 29 24 17 17 20 21 25 20 19 22 22 22 15 15 17 13 13 10 8 8 10 9 9
19 15 9 10 23 17 14 11 10 8 8 10 12 11 12 10 15 18 19 23 26 28 21 15 19 18 23 20 19 20 20 19 16 7 3 9 9 11 9 9 8 7 11
14 10 11 21 22 17 14 7 5 7 11 8 10 8 9 7 9 13 17 23 27 28 26 18 18 19 23 22 18 18 18 14 10 12 11 11 10 11 11 8 7 4 8
10 9 15 19 19 16 14 8 1 6 12 11 7 6 8 8 9 11 14 20 25 24 26 19 19 19 22 23 23 21 15 17 15 14 11 17 11 11 11 10 6 5 2
15 13 12 14 15 15 13 9 3 5 11 11 5 6 8 10 10 11 13 17 21 19 22 22 18 18 21 22 23 24 23 21 19 15 10 8 11 9 9 8 5 2 1
14 13 11 9 9 11 12 9 5 6 10 9 6 7 9 10 10 11 12 14 18 18 18 19 16 16 17 21 20 22 25 19 20 20 14 17 11 9 9 8 10 3 5
9 11 12 10 8 10 12 9 9 9 10 6 5 6 8 8 8 11 10 13 15 17 16 14 15 12 13 17 19 19 22 22 17 17 15 18 19 16 11 8 10 9 7
10 7 9 13 12 12 11 10 11 11 12 8 4 4 7 7 9 12 10 12 17 13 18 14 13 11 10 15 17 17 18 18 18 16 18 18 20 17 16 14 14 13 12
7 10 9 9 12 15 13 11 10 11 13 7 7 7 8 10 11 9 7 11 14 16 19 16 11 21 14 14 16 14 14 16 16 16 17 19 21 22 17 14 12 10 12
5 8 10 12 14 16 16 14 13 13 12 11 10 11 11 11 10 6 6 11 15 18 15 16 12 14 9 12 15 14 13 14 16 16 17 16 21 25 26 25 23 14 13
9 10 12 14 15 17 17 17 16 14 14 13 13 14 12 11 10 8 4 8 10 17 14 7 15 14 9 13 11 13 12 12 11 21 22 19 28 29 30 27 26 19 11
10 10 12 15 18 19 19 18 18 17 15 15 16 16 14 13 12 9 6 6 7 12 14 14 14 9 9 14 10 13 12 6 16 17 25 26 27 28 32 30 26 13 6
12 14 14 14 17 20 21 19 20 21 18 18 19 18 17 15 14 12 12 10 10 12 14 14 15 10 8 10 15 9 9 11 17 20 26 29 27 30 31 31 20 8 3
14 14 18 19 18 19 22 23 22 22 21 20 20 21 20 18 17 17 16 16 17 17 18 17 18 11 3 12 10 12 12 16 16 9 25 25 27 28 31 35 21 7 5
17 18 14 13 20 22 21 21 23 26 26 25 25 24 23 23 21 19 19 20 20 20 16 16 19 12 8 9 13 11 10 11 12 19 18 18 26 30 28 35 26 10 6
18 18 19 18 15 17 22 23 22 21 22 24 28 30 29 28 26 23 20 20 21 21 18 12 12 1 2 2 9 8 10 6 14 12 15 20 23 31 28 30 27 20 12
19 17 20 20 18 18 15 18 22 24 24 25 26 27 29 30 30 28 26 23 23 21 18 15 8 8 6 3 2 6 18 13 5 24 18 15 27 23 25 25 27 21 14
24 22 19 20 20 20 18 19 17 16 18 21 24 27 31 29 29 27 25 22 22 22 18 14 11 11 8 7 10 11 15 22 10 19 14 14 31 24 17 22 23 18 15
22 23 23 20 22 20 19 16 17 19 21 25 29 30 31 30 30 30 28 22 20 20 21 14 13 13 6 13 12 7 2 7 15 14 20 24 21 18 20 17 20 18 14
25 23 22 24 23 24 22 20 19 21 22 27 28 27 30 32 32 31 30 27 26 22 25 25 16 16 15 17 15 8 11 16 21 14 17 18 14 21 24 15 18 18 20
24 24 25 22 24 24 26 26 23 25 26 27 29 24 23 27 29 30 30 28 28 28 27 22 21 20 19 14 18 13 9 17 17 11 20 13 12 15 20 21 16 20 14
38 26 23 25 25 25 26 29 28 27 24 28 29 26 19 21 22 21 23 26 26 25 22 21 23 21 21 21 24 21 14 15 17 21 16 16 22 26 30 27 21 19 15
39 38 27 26 25 26 26 28 31 29 23 26 29 25 18 17 15 13 13 14 16 18 18 20 18 16 20 16 22 24 20 16 8 19 23 30 30 28 33 39 39 28 20
36 39 35 29 29 26 28 28 29 33 29 24 26 23 18 13 10 9 6 6 7 11 15 16 12 13 13 14 14 24 26 22 23 22 28 27 24 19 28 33 26 22 26
Wind_Direction
160 154 137 152 160 136 128 113 103 80 93 79 73 66 59 48 37 32 34 36 32 35 48 49 40 35 31 40 38 44 55 81 82 70 63 58 49 44 52 94 50 24 2
151 153 148 146 178 138 126 117 108 79 90 73 66 62 52 41 34 30 31 30 27 35 46 45 35 31 32 37 45 57 59 75 67 69 75 59 47 51 63 59 27 36 15
141 141 149 168 158 148 119 121 112 88 82 72 56 52 48 43 38 31 29 31 33 42 39 42 35 32 37 57 54 64 63 73 69 79 61 41 58 46 63 43 26 37 26
160 155 147 187 160 159 148 105 98 79 60 58 47 47 49 40 31 21 19 22 32 40 42 48 34 38 46 63 60 67 70 79 78 96 78 31 30 36 18 9 10 19 97
177 191 159 174 155 157 172 131 82 49 27 30 29 39 46 47 14 20 28 35 29 37 44 50 40 43 54 58 62 60 72 72 61 62 69 49 37 27 16 26 352 72 97
117 146 157 176 162 168 180 171 137 22 13 16 23 37 44 56 32 36 27 26 28 34 42 45 42 42 59 61 63 59 54 56 60 57 32 27 44 39 33 29 32 144 76
103 116 149 168 171 177 185 194 231 335 354 5 37 20 35 34 34 34 20 18 31 37 36 41 40 47 59 63 62 58 56 54 58 72 71 20 36 28 26 27 39 319 332
116 120 131 151 184 199 205 215 258 299 336 356 6 15 29 36 31 30 22 20 29 38 39 46 47 56 68 69 65 64 57 53 53 56 51 36 33 17 13 15 24 324 281
113 137 145 151 174 194 204 222 257 286 326 348 12 13 13 26 24 13 14 23 20 25 30 39 47 57 70 77 68 65 58 55 58 47 43 41 37 32 24 9 346 348 340
142 154 175 173 184 198 212 234 267 274 308 296 320 324 330 341 347 347 12 25 26 41 21 30 33 48 61 74 66 63 61 52 46 48 42 40 38 36 28 7 336 333 325
178 179 186 200 197 202 216 241 263 274 290 287 298 306 318 317 321 345 21 29 27 15 16 41 62 21 72 44 44 41 41 32 34 31 21 27 21 29 24 12 6 331 314
233 227 216 215 216 219 226 240 255 267 272 276 282 291 303 310 314 330 9 28 30 18 51 37 27 38 39 16 18 16 10 10 16 11 12 8 14 15 13 7 1 330 344
224 242 240 230 233 237 240 244 250 256 265 277 275 277 294 302 304 307 339 13 24 18 21 6 7 14 63 16 16 353 353 359 6 3 11 347 357 360 358 359 352 343 336
259 233 244 253 246 244 246 251 254 252 259 265 271 279 284 294 296 286 293 333 353 1 10 14 11 359 319 339 0 349 353 332 349 1 359 356 355 354 352 355 351 338 342
261 260 257 249 256 261 259 257 253 253 256 264 269 274 283 289 293 288 298 302 321 328 344 358 3 347 338 335 347 343 342 317 322 349 0 1 357 358 358 5 6 357 353
262 271 263 260 258 257 262 266 266 266 264 266 272 275 280 282 285 280 282 298 307 316 327 336 353 4 53 341 348 340 357 331 323 322 360 1 0 359 4 10 15 53 47
271 274 277 277 265 262 258 261 262 268 271 271 272 272 275 279 280 282 283 291 300 298 307 327 344 349 317 337 351 340 343 332 325 320 343 356 3 0 8 17 15 7 6
292 281 285 281 282 274 267 265 265 268 273 278 276 274 274 276 280 281 288 290 290 291 300 309 319 321 349 287 290 332 316 323 348 324 319 336 11 358 6 21 15 6 358
337 310 297 293 283 282 272 274 275 277 274 275 275 276 277 276 276 278 282 285 290 288 296 302 301 292 245 325 234 25 286 313 259 322 318 290 339 351 357 15 16 19 2
345 332 308 295 291 290 280 267 268 273 277 279 276 271 272 274 277 279 280 281 287 291 286 290 269 272 268 296 260 196 258 259 286 315 272 280 331 320 5 9 16 12 21
340 336 327 302 286 275 280 273 266 272 281 284 282 276 270 269 269 270 272 274 279 279 269 278 263 218 275 270 252 297 289 222 275 259 284 291 298 332 342 359 2 12 5
329 329 327 320 295 273 268 266 269 280 284 289 287 282 271 267 264 263 265 263 256 266 257 266 268 233 266 257 258 240 214 248 264 233 271 269 278 333 330 348 344 2 8
334 323 321 320 315 287 263 261 267 276 286 290 298 294 282 269 264 262 260 258 261 264 267 264 249 262 276 260 270 254 247 229 252 239 262 239 278 292 308 329 331 336 353
328 334 327 320 317 311 283 260 263 269 279 288 301 295 291 279 268 260 252 253 255 260 261 254 252 259 266 256 265 260 262 249 259 243 228 254 280 273 287 305 323 341 10
321 324 330 327 321 317 308 282 259 263 265 283 294 290 286 281 278 268 260 264 271 274 261 249 245 257 264 255 257 256 253 248 253 252 260 273 279 285 290 298 309 306 290
315 316 320 326 321 318 314 306 277 260 260 267 283 280 277 273 267 262 263 271 261 260 260 258 244 239 273 284 277 245 242 244 249 259 264 271 278 314 299 307 312 291 274
Height
11019 11023 11026 11029 11031 11033 11036 11037 11039 11040 11039 11038 11037 11037 11037 11037 11036 11034 11032 11029 11026 11024 11022 11019 11016 11011 11007 11004 11001 10998 10996 10996 10997 10998 10999 11000 11002 11002 11000 10997 10997 10996 10997
11022 11025 11027 11030 11032 11033 11037 11039 11041 11042 11042 11040 11039 11039 11039 11040 11039 11038 11035 11032 11029 11027 11025 11022 11018 11013 11009 11007 11004 11003 11002 11002 11003 11002 11003 11003 11002 11004 11003 11000 10998 10996 10997
11024 11027 11030 11032 11033 11037 11038 11041 11042 11043 11043 11042 11042 11042 11042 11042 11042 11040 11038 11035 11032 11028 11026 11023 11020 11016 11013 11010 11008 11008 11007 11006 11005 11003 11002 11003 11003 11004 11004 11003 11001 10998 10998
11025 11029 11031 11032 11035 11038 11040 11042 11043 11044 11044 11043 11043 11043 11044 11044 11044 11042 11040 11036 11034 11030 11027 11025 11021 11017 11015 11014 11012 11012 11009 11008 11006 11005 11004 11004 11004 11003 11005 11003 11002 11001 11000
11027 11030 11033 11035 11036 11039 11042 11043 11044 11045 11045 11045 11045 11045 11045 11045 11045 11043 11040 11038 11035 11032 11030 11028 11024 11020 11017 11016 11015 11015 11014 11010 11008 11006 11005 11004 11005 11005 11004 11002 11002 11003 11002
11029 11031 11034 11037 11038 11041 11043 11045 11046 11047 11047 11047 11047 11047 11047 11047 11046 11044 11042 11039 11036 11034 11032 11030 11027 11024 11021 11020 11018 11017 11016 11013 11011 11007 11005 11006 11006 11006 11004 11003 11004 11004 11003
11031 11033 11036 11039 11041 11043 11045 11047 11047 11048 11048 11049 11048 11048 11048 11047 11046 11045 11043 11040 11037 11036 11035 11033 11030 11026 11023 11021 11020 11019 11018 11016 11015 11014 11011 11012 11009 11007 11007 11006 11006 11006 11005
11032 11034 11037 11040 11043 11045 11047 11048 11048 11049 11049 11049 11049 11049 11047 11046 11046 11045 11043 11041 11039 11038 11036 11033 11030 11027 11023 11022 11021 11018 11018 11018 11018 11016 11014 11012 11010 11008 11010 11008 11005 11006 11005
11034 11035 11036 11039 11042 11045 11047 11048 11048 11049 11050 11051 11051 11050 11048 11046 11045 11045 11044 11043 11041 11039 11036 11035 11032 11029 11025 11023 11023 11021 11019 11017 11018 11017 11017 11013 11010 11009 11009 11008 11007 11007 11005
11035 11037 11038 11039 11041 11043 11046 11048 11048 11049 11050 11051 11051 11049 11047 11046 11045 11045 11045 11043 11042 11040 11037 11036 11034 11032 11030 11028 11026 11025 11022 11022 11020 11020 11019 11016 11013 11010 11007 11007 11007 11007 11006
11037 11037 11038 11040 11041 11043 11045 11046 11047 11048 11049 11050 11050 11048 11047 11045 11045 11046 11046 11045 11044 11040 11037 11036 11038 11036 11034 11035 11032 11030 11026 11025 11024 11021 11022 11019 11017 11013 11011 11010 11009 11007 11005
11036 11037 11039 11040 11041 11043 11044 11046 11046 11047 11048 11049 11049 11047 11046 11044 11044 11045 11045 11045 11045 11040 11038 11038 11037 11036 11038 11036 11036 11035 11032 11027 11022 11022 11022 11021 11018 11016 11013 11011 11009 11007 11004
11036 11037 11038 11039 11041 11042 11043 11044 11045 11045 11046 11047 11046 11045 11044 11043 11044 11044 11045 11044 11044 11041 11038 11038 11039 11037 11036 11035 11032 11033 11031 11030 11027 11025 11025 11026 11022 11019 11015 11010 11006 11004 11004
11033 11034 11036 11037 11039 11040 11041 11042 11042 11042 11044 11044 11043 11042 11043 11042 11042 11043 11044 11044 11042 11040 11039 11040 11036 11034 11032 11032 11030 11030 11029 11027 11027 11024 11024 11025 11021 11019 11014 11007 11002 11001 11002
11035 11034 11033 11034 11036 11037 11038 11039 11039 11039 11041 11041 11040 11039 11039 11040 11040 11041 11041 11041 11041 11038 11038 11039 11037 11034 11032 11029 11031 11029 11026 11023 11021 11019 11019 11019 11019 11017 11012 11004 11000 10998 11000
11032 11032 11033 11033 11033 11034 11035 11036 11036 11036 11037 11037 11037 11036 11036 11036 11037 11037 11039 11039 11038 11034 11035 11035 11036 11033 11029 11031 11030 11029 11028 11026 11022 11016 11019 11016 11016 11015 11009 11002 11000 10999 11000
11030 11029 11030 11029 11030 11030 11031 11032 11033 11034 11034 11034 11034 11033 11032 11031 11032 11033 11034 11036 11035 11033 11035 11035 11032 11031 11031 11032 11030 11026 11025 11026 11027 11022 11021 11018 11016 11015 11010 11003 11000 11000 11001
11026 11026 11026 11027 11026 11026 11026 11027 11029 11030 11029 11029 11028 11027 11027 11027 11028 11029 11030 11030 11030 11029 11030 11032 11032 11034 11034 11033 11031 11031 11028 11025 11024 11027 11019 11019 11015 11016 11010 11005 11003 11000 11001
11023 11022 11021 11022 11023 11023 11022 11022 11024 11025 11025 11023 11022 11021 11021 11023 11023 11024 11025 11025 11024 11024 11025 11026 11028 11029 11028 11029 11029 11019 11020 11024 11023 11027 11024 11016 11019 11017 11013 11008 11006 11003 11002
11020 11018 11018 11017 11018 11018 11018 11018 11019 11019 11018 11017 11016 11016 11015 11017 11017 11019 11019 11020 11019 11020 11021 11021 11021 11022 11022 11022 11021 11019 11022 11024 11023 11025 11023 11024 11022 11020 11011 11010 11006 11004 11002
11018 11016 11014 11014 11012 11014 11014 11014 11014 11015 11013 11011 11009 11009 11009 11010 11012 11012 11012 11014 11016 11014 11013 11017 11020 11021 11020 11017 11015 11016 11016 11018 11021 11024 11021 11019 11020 11018 11013 11009 11008 11003 11002
11015 11013 11012 11009 11007 11008 11010 11010 11010 11010 11009 11006 11002 11002 11001 11001 11003 11004 11005 11007 11008 11009 11010 11012 11019 11019 11018 11015 11016 11012 11011 11013 11015 11017 11016 11013 11013 11011 11012 11009 11008 11005 11003
11013 11010 11007 11006 11003 11001 11003 11004 11005 11004 11003 11001 10998 10995 10994 10994 10995 10997 10998 10999 11000 11001 11003 11010 11016 11016 11018 11016 11014 11011 11009 11010 11009 11011 11008 11007 11007 11009 11011 11011 11011 11006 11002
11004 11008 11004 11001 10999 10997 10995 10997 10998 10998 10998 10995 10992 10990 10989 10989 10988 10990 10992 10992 10993 10994 10998 11001 11004 11007 11008 11010 11008 11007 11005 11004 11004 11007 11005 11003 11005 11009 11011 11009 11008 11007 11002
10998 10997 11000 10997 10994 10992 10990 10989 10990 10992 10992 10990 10987 10985 10985 10984 10985 10985 10986 10989 10990 10989 10993 10995 10999 11001 11002 11003 11003 11002 11002 11001 10998 10999 11001 11004 11004 11005 11009 11011 11006 11005 11003
10997 10992 10992 10992 10989 10988 10985 10983 10983 10985 10986 10986 10984 10983 10982 10982 10982 10982 10983 10984 10986 10984 10985 10989 10995 10999 11000 11001 11001 10999 11001 10999 10999 10998 10998 11000 11001 11003 11002 11002 10999 10993 10990